Location: Bakhuizen
(52.8696°N, 5.4575°E)
Time: 07:37:32
(UTC+00:00)

Cosmos 1437 - Pass Details

Date: 11 May 2021
Orbit: 338 x 344 km, 81.2° (Epoch: 15 June)

Event Time Altitude Azimuth Distance (km) Brightness Sun altitude
Exits shadow 21:04:17 - 207° (SSW) 1,816 5.7 -11.9°
Reaches altitude 10° 21:05:27 10° 212° (SSW) 1,328 5.1 -12.0°
Maximum altitude 21:08:14 44° 287° (WNW) 507 3.6 -12.3°
Drops below altitude 10° 21:11:01 10° 2° (N) 1,338 6.1 -12.5°
Sets 21:13:03 0° 9° (N) 2,187 7.2 -12.7°
